TimeCDT,TemperatureF,Dew PointF,Humidity,Sea Level PressureIn,VisibilityMPH,Wind Direction,Wind SpeedMPH,Gust SpeedMPH,PrecipitationIn,Events,Conditions,WindDirDegrees,DateUTC
12:55 AM,52.0,48.9,89,30.03,10.0,South,5.8,-,N/A,,Clear,190,2012-10-04 05:55:00
1:55 AM,55.9,51.1,84,30.03,10.0,South,6.9,-,N/A,,Clear,190,2012-10-04 06:55:00
2:55 AM,55.0,52.0,89,30.02,10.0,SSW,5.8,-,N/A,,Clear,200,2012-10-04 07:55:00
3:55 AM,55.9,52.0,87,30.02,10.0,SSW,8.1,-,N/A,,Clear,200,2012-10-04 08:55:00
4:55 AM,55.9,52.0,87,30.02,10.0,South,8.1,-,N/A,,Clear,190,2012-10-04 09:55:00
5:55 AM,59.0,53.1,81,30.04,10.0,SSW,10.4,-,N/A,,Mostly Cloudy,210,2012-10-04 10:55:00
6:55 AM,59.0,53.1,81,30.06,10.0,SW,8.1,-,N/A,,Partly Cloudy,220,2012-10-04 11:55:00
7:55 AM,60.1,53.1,78,30.07,10.0,SW,9.2,-,N/A,,Clear,220,2012-10-04 12:55:00
8:55 AM,61.0,52.0,72,30.09,10.0,West,9.2,17.3,N/A,,Clear,280,2012-10-04 13:55:00
9:55 AM,61.0,50.0,67,30.13,10.0,NW,10.4,-,N/A,,Mostly Cloudy,320,2012-10-04 14:55:00
10:55 AM,57.9,43.0,58,30.16,10.0,NNW,9.2,-,N/A,,Mostly Cloudy,330,2012-10-04 15:55:00
11:55 AM,57.9,44.1,60,30.18,10.0,NW,13.8,-,N/A,,Mostly Cloudy,320,2012-10-04 16:55:00
12:55 PM,54.0,43.0,66,30.20,10.0,NW,10.4,20.7,N/A,,Mostly Cloudy,310,2012-10-04 17:55:00
1:55 PM,52.0,45.0,77,30.19,10.0,NW,8.1,-,0.00,Rain,Light Rain,310,2012-10-04 18:55:00
2:37 PM,50.0,42.8,76,30.21,10.0,NW,15.0,24.2,N/A,,Mostly Cloudy,310,2012-10-04 19:37:00
2:55 PM,50.0,42.1,74,30.23,10.0,NW,12.7,21.9,0.00,,Overcast,320,2012-10-04 19:55:00
3:10 PM,48.2,41.0,76,30.20,10.0,NNW,8.1,16.1,N/A,Thunderstorm,Thunderstorm,330,2012-10-04 20:10:00
3:31 PM,48.2,41.0,76,30.22,10.0,NW,9.2,-,N/A,Thunderstorm,Overcast,320,2012-10-04 20:31:00
3:44 PM,46.4,42.8,87,30.22,10.0,WNW,10.4,19.6,N/A,Thunderstorm,Overcast,300,2012-10-04 20:44:00
3:55 PM,46.0,42.1,86,30.25,10.0,NW,8.1,17.3,0.00,Rain-Thunderstorm,Light Rain,320,2012-10-04 20:55:00
4:07 PM,44.6,42.8,93,30.22,8.0,NNW,5.8,-,0.01,Rain-Thunderstorm,Light Rain,330,2012-10-04 21:07:00
4:24 PM,44.6,42.8,93,30.23,4.0,WNW,9.2,-,0.02,Rain-Thunderstorm,Light Rain,300,2012-10-04 21:24:00
4:36 PM,44.6,42.8,93,30.22,1.8,WNW,6.9,-,0.05,Rain-Thunderstorm,Rain,300,2012-10-04 21:36:00
4:48 PM,44.6,42.8,93,30.22,3.0,WNW,6.9,-,0.10,Rain-Thunderstorm,Light Thunderstorms and Rain,300,2012-10-04 21:48:00
4:55 PM,45.0,44.1,97,30.25,9.0,West,6.9,-,0.10,Rain-Thunderstorm,Light Thunderstorms and Rain,280,2012-10-04 21:55:00
5:18 PM,44.6,42.8,93,30.23,4.0,WNW,5.8,-,N/A,Rain,Rain,300,2012-10-04 22:18:00
5:55 PM,45.0,44.1,97,30.24,6.0,Calm,Calm,-,0.03,Rain,Light Rain,0,2012-10-04 22:55:00
6:55 PM,46.0,44.1,93,30.24,10.0,WSW,3.5,-,0.01,,Overcast,240,2012-10-04 23:55:00
7:55 PM,46.0,45.0,96,30.24,10.0,West,4.6,-,N/A,,Overcast,270,2012-10-05 00:55:00
8:55 PM,45.0,44.1,97,30.24,10.0,West,5.8,-,N/A,,Overcast,280,2012-10-05 01:55:00
9:55 PM,46.0,44.1,93,30.23,10.0,NW,5.8,-,N/A,,Overcast,310,2012-10-05 02:55:00
10:55 PM,46.0,45.0,96,30.25,10.0,WNW,5.8,-,N/A,,Overcast,290,2012-10-05 03:55:00
11:55 PM,45.0,43.0,93,30.24,10.0,NW,4.6,-,0.00,,Scattered Clouds,320,2012-10-05 04:55:00